Home   Weather   Bamyan   Past weeks

Flag for Afghanistan Past Weather in Bamyan, Afghanistan — Yesterday and Last 2 Weeks

57 °F


Feels Like: 57 °F
Forecast: 22 / 59 °F
Wind: 2 mph from Northwest

Location: Termez Airport

Current Time: Oct 28, 2016 at 8:48:19 PM

Latest Report: Oct 28, 2016 at 8:00 PM

Visibility: 10 mi

Pressure: 30.24 "Hg (22.48 "Hg at 2492m altitude)

Humidity: 41%

Dew Point: 34 °F

Location of BamyanLocation

Past Weather in Bamyan — Graph


Bamyan Temperature Yesterday

Maximum temperature yesterday: 73 °F (at 2:00 PM)
Minimum temperature yesterday: 41 °F (at 1:30 AM)
Average temperature yesterday: 56 °F

High & Low Weather Summary for the Past Weeks

High86 °F (Oct 15, 2:00 PM)81% (Oct 26, 3:30 AM)30.51 "Hg (Oct 26, 3:30 AM)
Low34 °F (Oct 24, 5:30 AM)13% (Oct 15, 2:30 PM)29.86 "Hg (Oct 15, 5:00 PM)
Average57 °F43%30.22 "Hg
* Reported Oct 13 7:30 PM — Oct 28 7:30 PM, Bamyan, Weather by CustomWeather, © 2016

Note: Actual official high and low records may vary slightly from our data, if they occured in-between our weather recording intervals... More about our weather records


Bamyan Weather History for the Previous 24 Hours

Scroll right to see more
Time TempWeatherWind HumidityBarometerVisibility
7:30 PM
Fri, Oct 28
59 °FClear.2 mph39%30.27 "Hg10 mi
7:00 PM59 °FClear.3 mph39%30.24 "Hg10 mi
6:30 PM61 °FClear.2 mph34%30.24 "Hg10 mi
6:00 PM61 °FClear.5 mph36%30.24 "Hg10 mi
5:30 PM63 °FClear.5 mph34%30.24 "Hg10 mi
5:00 PM66 °FSunny.5 mph32%30.24 "Hg10 mi
4:30 PM70 °FSunny.3 mph29%30.24 "Hg10 mi
4:00 PM73 °FSunny.5 mph22%30.24 "Hg10 mi
3:30 PM75 °FPassing clouds.5 mph18%30.24 "HgN/A
3:00 PM75 °FPassing clouds.5 mph18%30.24 "HgN/A
2:30 PM75 °FPassing clouds.5 mph18%30.27 "HgN/A
2:00 PM75 °FPassing clouds.6 mph16%30.27 "HgN/A
1:30 PM75 °FPassing clouds.6 mph21%30.27 "HgN/A
1:00 PM73 °FPassing clouds.6 mph19%30.27 "HgN/A
12:30 PM73 °FPassing clouds.5 mph20%30.30 "HgN/A
12:00 PM73 °FPassing clouds.5 mph20%30.30 "HgN/A
11:30 AM72 °FPassing clouds.3 mph20%30.30 "HgN/A
11:00 AM70 °FPassing clouds.3 mph21%30.33 "HgN/A
10:30 AM68 °FPassing clouds.3 mph23%30.33 "HgN/A
10:00 AM64 °FSunny.2 mph28%30.33 "Hg10 mi
9:30 AM61 °FPassing clouds.3 mph34%30.33 "HgN/A
9:00 AM57 °FPassing clouds.5 mph44%30.33 "HgN/A
8:30 AM54 °FSunny.2 mph51%30.33 "Hg10 mi
8:00 AM50 °FPassing clouds.No wind58%30.30 "HgN/A
7:30 AM46 °FPassing clouds.3 mph66%30.30 "HgN/A
7:00 AM45 °FPassing clouds.5 mph71%30.30 "HgN/A
6:30 AM43 °FSunny.5 mph71%30.30 "Hg10 mi
5:30 AM43 °FClear.3 mph71%30.27 "Hg10 mi
4:30 AM45 °FClear.1 mph71%30.27 "Hg10 mi
3:30 AM45 °FPassing clouds.3 mph71%30.27 "HgN/A
3:00 AM46 °FClear.3 mph66%30.27 "Hg10 mi
2:30 AM46 °FClear.3 mph66%30.24 "Hg10 mi
2:00 AM46 °FClear.3 mph62%30.27 "Hg10 mi
1:30 AM46 °FClear.5 mph62%30.27 "Hg10 mi
1:00 AM46 °FClear.6 mph62%30.27 "Hg10 mi
12:30 AM48 °FClear.3 mph58%30.24 "Hg10 mi
12:00 AM48 °FClear.1 mph58%30.24 "Hg10 mi
11:30 PM
Thu, Oct 27
50 °FClear.5 mph50%30.24 "Hg10 mi
11:00 PM50 °FClear.3 mph50%30.27 "Hg10 mi
10:30 PM48 °FClear.2 mph54%30.27 "Hg10 mi
10:00 PM50 °FClear.No wind58%30.27 "Hg10 mi
9:30 PM52 °FClear.No wind58%30.24 "Hg10 mi
9:00 PM52 °FClear.No wind58%30.24 "Hg10 mi
8:30 PM52 °FClear.No wind54%30.24 "Hg10 mi
8:00 PM55 °FClear.No wind55%30.24 "Hg10 mi
Weather by CustomWeather, © 2016

See weather overviewHow to use our weather pages